GW4807 Weather Reports


Display with metric or nautical units.
time (UTC)temp
F
wind
direction
speed
MPH
gust
MPH
rain 1hr
in
rain 24hr
in
rain mn
in
humidity
%
barometer
mb
20260504060149 54 135 0.0 0.0 0.00 0.00 0.00 87 1005.1
20260504050617 55 156 1.0 1.0 0.00 0.00 0.00 83 1005.2
20260504050114 55 136 0.0 1.0 0.00 0.00 0.00 83 1005.5
20260504045611 55 144 0.0 1.0 0.00 0.00 0.00 84 1005.2
20260504045106 55 149 1.0 1.0 0.00 0.00 0.00 83 1005.4
20260504044604 55 138 0.0 0.0 0.00 0.00 0.00 83 1005.4
20260504044100 55 147 1.0 1.0 0.00 0.00 0.00 82 1005.4
20260504043558 55 136 0.0 0.0 0.00 0.00 0.00 82 1005.4
20260504043055 55 144 0.0 1.0 0.00 0.00 0.00 81 1005.5
20260504042552 55 151 0.0 1.0 0.00 0.00 0.00 81 1005.6
20260504042049 55 142 0.0 1.0 0.00 0.00 0.00 81 1005.7
20260504041544 55 156 1.0 1.0 0.00 0.00 0.00 81 1005.6
20260504041041 55 165 1.0 1.0 0.00 0.00 0.00 81 1005.6
20260504040538 55 143 1.0 1.0 0.00 0.00 0.00 82 1005.8
20260504040035 55 133 0.0 0.0 0.00 0.00 0.00 82 1005.5
20260504035532 55 140 0.0 1.0 0.00 0.00 0.00 83 1005.8
20260504035028 55 138 0.0 0.0 0.00 0.00 0.00 83 1005.5
20260504034526 55 141 0.0 0.0 0.00 0.00 0.00 83 1005.9
20260504034023 55 145 1.0 1.0 0.00 0.00 0.00 83 1005.8
20260504033521 55 138 0.0 0.0 0.00 0.00 0.00 82 1006.0
20260504033018 55 140 0.0 0.0 0.00 0.00 0.00 82 1005.9
20260504032515 55 141 0.0 0.0 0.00 0.00 0.00 82 1006.0
20260504032011 56 139 0.0 0.0 0.00 0.00 0.00 81 1006.1
20260504031509 56 137 0.0 0.0 0.00 0.00 0.00 80 1005.9
20260504031005 56 138 0.0 0.0 0.00 0.00 0.00 79 1006.2
20260504030502 56 138 0.0 0.0 0.00 0.00 0.00 78 1006.2
20260504025958 57 139 0.0 0.0 0.00 0.00 0.00 80 1006.2
20260504025455 57 135 0.0 0.0 0.00 0.00 0.00 79 1006.1
20260504024952 57 140 0.0 0.0 0.00 0.00 0.00 79 1006.1
20260504024449 57 138 0.0 0.0 0.00 0.00 0.00 79 1006.3
20260504023946 57 137 0.0 0.0 0.00 0.00 0.00 78 1006.0
20260504023442 57 135 0.0 0.0 0.00 0.00 0.00 78 1005.9
20260504022938 58 135 0.0 0.0 0.00 0.00 0.00 77 1005.8
20260504022434 58 134 0.0 0.0 0.00 0.00 0.00 77 1005.7
20260504021931 58 137 0.0 0.0 0.00 0.00 0.00 76 1005.8
20260504021429 58 133 0.0 0.0 0.00 0.00 0.00 75 1005.8
20260504020926 59 137 0.0 0.0 0.00 0.00 0.00 75 1005.7
20260504020422 59 136 0.0 0.0 0.00 0.00 0.00 74 1005.7
20260504015919 59 134 0.0 0.0 0.00 0.00 0.00 73 1005.6
20260504015415 60 138 0.0 0.0 0.00 0.00 0.00 72 1005.6
20260504014911 60 138 0.0 0.0 0.00 0.00 0.00 72 1005.5
20260504014407 60 136 0.0 0.0 0.00 0.00 0.00 72 1005.6
20260504013904 61 145 0.0 1.0 0.00 0.00 0.00 72 1005.5
20260504013403 61 142 0.0 0.0 0.00 0.00 0.00 70 1005.5
20260504012858 61 137 0.0 0.0 0.00 0.00 0.00 71 1005.6
20260504012356 62 144 0.0 1.0 0.00 0.00 0.00 68 1005.7
20260504011854 62 142 0.0 0.0 0.00 0.00 0.00 68 1005.6
20260504011350 63 142 0.0 0.0 0.00 0.00 0.00 65 1005.3
20260504010846 64 141 0.0 0.0 0.00 0.00 0.00 64 1005.5
20260504010342 64 141 0.0 0.0 0.00 0.00 0.00 63 1005.3
20260504005839 65 145 0.0 0.0 0.00 0.00 0.00 61 1005.3
20260504005335 66 140 0.0 0.0 0.00 0.00 0.00 60 1005.4
20260504004833 67 146 0.0 0.0 0.00 0.00 0.00 57 1005.4
20260504004331 67 145 0.0 1.0 0.00 0.00 0.00 55 1005.4
20260504003827 68 145 1.0 1.0 0.00 0.00 0.00 55 1005.4
20260504003324 68 138 0.0 0.0 0.00 0.00 0.00 53 1005.3
20260504002821 70 150 1.0 1.0 0.00 0.00 0.00 52 1005.3
20260504002317 71 128 0.0 0.0 0.00 0.00 0.00 49 1005.3
20260504001815 72 165 1.0 1.0 0.00 0.00 0.00 47 1005.4
20260504001312 72 142 1.0 1.0 0.00 0.00 0.00 43 1005.4
20260504000809 73 134 1.0 2.0 0.00 0.00 0.00 43 1005.3
20260504000306 73 134 0.0 0.0 0.00 0.00 0.00 41 1005.4
20260503235804 74 133 0.0 1.0 0.00 0.00 0.00 42 1005.4
20260503235304 74 127 0.0 0.0 0.00 0.00 0.00 40 1005.4
20260503234759 75 306 3.0 5.0 0.00 0.00 0.00 40 1005.3
20260503234256 75 138 0.0 0.0 0.00 0.00 0.00 39 1005.4
20260503233753 76 164 2.0 2.0 0.00 0.00 0.00 37 1005.3
20260503233249 76 189 1.0 2.0 0.00 0.00 0.00 38 1005.4
20260503232746 77 146 1.0 1.0 0.00 0.00 0.00 36 1005.5
20260503232243 77 222 4.0 5.0 0.00 0.00 0.00 36 1005.7
20260503231741 77 178 1.0 2.0 0.00 0.00 0.00 35 1005.6
20260503231238 78 270 2.0 2.0 0.00 0.00 0.00 36 1005.6
20260503230734 78 260 3.0 3.0 0.00 0.00 0.00 34 1005.6
20260503230232 79 142 1.0 1.0 0.00 0.00 0.00 34 1005.7
20260503225729 80 163 0.0 1.0 0.00 0.00 0.00 33 1005.5
20260503225229 80 167 4.0 5.0 0.00 0.00 0.00 33 1005.4
20260503224726 80 175 3.0 3.0 0.00 0.00 0.00 35 1005.6
20260503224224 80 183 1.0 1.0 0.00 0.00 0.00 33 1005.7
20260503223721 80 197 3.0 3.0 0.00 0.00 0.00 34 1005.6
20260503223219 80 141 4.0 5.0 0.00 0.00 0.00 36 1005.8
20260503222715 80 175 2.0 3.0 0.00 0.00 0.00 36 1005.9
20260503222213 80 312 3.0 3.0 0.00 0.00 0.00 37 1005.9
20260503221711 80 297 3.0 3.0 0.00 0.00 0.00 36 1005.8
20260503221208 80 147 4.0 5.0 0.00 0.00 0.00 36 1005.8
20260503220705 80 164 4.0 6.0 0.00 0.00 0.00 35 1006.0
20260503220201 80 275 4.0 6.0 0.00 0.00 0.00 36 1006.0
20260503215658 80 207 5.0 7.0 0.00 0.00 0.00 34 1006.3
20260503215155 80 222 3.0 5.0 0.00 0.00 0.00 36 1006.2
20260503214654 80 226 2.0 3.0 0.00 0.00 0.00 37 1006.2
20260503214149 80 145 2.0 3.0 0.00 0.00 0.00 36 1006.2
20260503213643 80 346 2.0 3.0 0.00 0.00 0.00 36 1006.2
20260503213139 80 162 2.0 2.0 0.00 0.00 0.00 36 1006.2
20260503212637 80 288 3.0 3.0 0.00 0.00 0.00 38 1006.5
20260503212134 80 208 5.0 6.0 0.00 0.00 0.00 36 1006.6
20260503211632 80 179 5.0 7.0 0.00 0.00 0.00 35 1006.5
20260503211127 80 278 3.0 5.0 0.00 0.00 0.00 35 1006.9
20260503210623 79 243 1.0 2.0 0.00 0.00 0.00 38 1006.7
20260503210120 79 158 3.0 5.0 0.00 0.00 0.00 36 1006.8
20260503205616 79 180 3.0 6.0 0.00 0.00 0.00 37 1007.0
20260503205112 80 291 7.0 9.0 0.00 0.00 0.00 37 1007.1
20260503204609 79 285 5.0 8.0 0.00 0.00 0.00 37 1007.1
20260503204107 79 223 2.0 5.0 0.00 0.00 0.00 41 1007.2
20260503203604 79 296 5.0 7.0 0.00 0.00 0.00 41 1007.2
20260503203101 79 289 2.0 3.0 0.00 0.00 0.00 43 1007.5
20260503202558 78 156 2.0 3.0 0.00 0.00 0.00 40 1007.3
20260503202056 79 290 4.0 5.0 0.00 0.00 0.00 39 1007.4
20260503201554 79 196 6.0 9.0 0.00 0.00 0.00 42 1007.6
20260503201051 79 187 3.0 3.0 0.00 0.00 0.00 43 1007.6
20260503200547 78 109 2.0 2.0 0.00 0.00 0.00 42 1007.8
20260503200044 77 131 1.0 1.0 0.00 0.00 0.00 48 1007.9
20260503195541 77 94 1.0 1.0 0.00 0.00 0.00 42 1008.2
20260503195038 77 171 2.0 2.0 0.00 0.00 0.00 47 1008.1
20260503194535 76 287 3.0 3.0 0.00 0.00 0.00 40 1008.2
20260503194035 77 148 5.0 6.0 0.00 0.00 0.00 39 1008.2
20260503193532 76 181 4.0 5.0 0.00 0.00 0.00 40 1008.5
20260503193027 77 28 3.0 3.0 0.00 0.00 0.00 45 1008.6
20260503192523 76 138 1.0 2.0 0.00 0.00 0.00 48 1008.6
20260503192020 76 169 5.0 7.0 0.00 0.00 0.00 42 1008.7
20260503191516 76 223 5.0 7.0 0.00 0.00 0.00 45 1008.8
20260503191013 75 199 1.0 2.0 0.00 0.00 0.00 46 1008.9
20260503190510 75 284 4.0 6.0 0.00 0.00 0.00 51 1009.0
20260503190008 75 100 2.0 3.0 0.00 0.00 0.00 47 1009.0
20260503185504 75 282 7.0 8.0 0.00 0.00 0.00 45 1008.9
20260503185003 74 218 1.0 2.0 0.00 0.00 0.00 50 1009.0
20260503184500 73 322 3.0 3.0 0.00 0.00 0.00 46 1009.1
20260503183956 74 155 2.0 2.0 0.00 0.00 0.00 47 1009.2
20260503183453 74 157 3.0 3.0 0.00 0.00 0.00 48 1009.4
20260503182950 74 311 4.0 6.0 0.00 0.00 0.00 46 1009.5
20260503182449 73 178 5.0 8.0 0.00 0.00 0.00 47 1009.7
20260503181946 73 182 3.0 5.0 0.00 0.00 0.00 50 1009.9
20260503181443 73 182 3.0 5.0 0.00 0.00 0.00 48 1009.9
20260503180939 73 145 1.0 1.0 0.00 0.00 0.00 46 1009.8
20260503180437 73 67 3.0 3.0 0.00 0.00 0.00 49 1010.2
20260503175934 73 140 2.0 2.0 0.00 0.00 0.00 48 1010.2
20260503175432 72 317 2.0 3.0 0.00 0.00 0.00 48 1010.5
20260503174927 72 129 1.0 2.0 0.00 0.00 0.00 47 1010.6
20260503174426 71 147 2.0 2.0 0.00 0.00 0.00 51 1010.7
20260503173926 71 152 1.0 1.0 0.00 0.00 0.00 52 1010.6
20260503173422 70 40 3.0 3.0 0.00 0.00 0.00 47 1011.0
20260503172919 69 254 3.0 5.0 0.00 0.00 0.00 49 1010.9
20260503172417 69 283 3.0 3.0 0.00 0.00 0.00 50 1011.0
20260503171913 68 155 1.0 2.0 0.00 0.00 0.00 50 1011.0
20260503171410 68 73 1.0 1.0 0.00 0.00 0.00 53 1011.0
20260503170907 68 204 3.0 5.0 0.00 0.00 0.00 48 1011.2
20260503170403 67 233 4.0 6.0 0.00 0.00 0.00 51 1011.3
20260503150755 60 188 5.0 7.0 0.00 0.00 0.00 57 1012.8
20260503150251 60 149 1.0 1.0 0.00 0.00 0.00 58 1012.6
20260503140216 55 174 3.0 3.0 0.00 0.00 0.00 69 1012.7
20260503131145 48 153 0.0 1.0 0.00 0.00 0.00 93 1013.3
20260503130643 47 153 0.0 1.0 0.00 0.00 0.00 95 1013.3
20260503130140 46 117 0.0 1.0 0.00 0.00 0.00 94 1013.3
20260503110527 33 127 0.0 0.0 0.00 0.00 0.00 99 1012.7
20260503090415 34 129 0.0 0.0 0.00 0.00 0.00 99 1013.2
20260503081340 35 128 0.0 0.0 0.00 0.00 0.00 99 1013.4
20260503080837 35 129 0.0 0.0 0.00 0.00 0.00 99 1013.3
20260503080334 35 127 0.0 0.0 0.00 0.00 0.00 99 1013.3
20260503072805 35 128 0.0 0.0 0.00 0.00 0.00 99 1013.4
20260503072304 35 129 0.0 0.0 0.00 0.00 0.00 99 1013.8
20260503071757 35 129 0.0 0.0 0.00 0.00 0.00 99 1013.6
20260503071255 35 129 0.0 0.0 0.00 0.00 0.00 99 1013.8
20260503070751 35 129 0.0 0.0 0.00 0.00 0.00 99 1013.8
20260503070249 36 129 0.0 0.0 0.00 0.00 0.00 99 1013.6